Weather in Boltutino

Russia / Smolensk Oblast     54°31′36″N   32°49′06″E
temp.,
°C
wind,
m/s
gust,
m/s
humid.,
%
clouds,
%
prec.,
mm/h
press.,
hPa
HPBL,
m
15 may, sat
sat1500:00+11e369829 0.2 1007126
03:00+11sse359715 0.2 100680
06:00+11ssw389525 0.0 1006191
09:00+15ssw46821 0.0 1007542
12:00+18ssw56675 1.1 10071284
15:00+18ssw45635 2.1 10061273
18:00+17ssw467720 1.6 1007841
21:00+12ssw369334 2.5 100797
16 may, sun
sun1600:00+11ssw49968 0.0 1008202
03:00+10s499798 0.0 1009200
06:00+11s4109735 0.0 1010284
09:00+14sw578777 0.0 1011544
12:00+18sw566945 0.1 10121267
15:00+20sw456191 0.2 10121512
18:00+18ssw34734 0.3 1012550
21:00+14sse2288100 0.4 101319
17 may, mon
mon1700:00+12se229090 0.0 101324
03:00+11ese359238 0.0 101381
06:00+12ese3893100 0.0 1012173
09:00+17ese477599 0.0 1011401
12:00+21e6863100 0.0 10091068
15:00+24ese6116053 0.0 10061663
18:00+23se6116399 0.0 1004735
21:00+17ese498445 0.1 1004179
18 may, tue
tue1800:00+16se51189100 0.1 1003272
03:00+15ese4996100 0.1 1002211
06:00+15se51197100 2.4 1001367
09:00+17se51193100 3.4 1001622
12:00+20sse81272100 0.1 10011476
15:00+18sse71182100 0.8 10001002
18:00+15sse5119499 3.1 1000601
21:00+14ssw6109660 3.6 1001443
19 may, wed
wed1900:00+12s349799 0.0 100272
03:00+13ese1297100 1.5 100136
06:00+12ne2398100 2.3 1000140
09:00+13w3497100 4.4 1000336
12:00+11wnw61097100 3.3 1001509
15:00+10w71295100 8.6 1002615
18:00+10w71292100 1.6 1002810
21:00+10wsw51291100 1.7 1004713